| time (UTC) | temp C | wind direction | speed KPH | gust KPH | rain 1hr cm | rain 24hr cm | rain mn cm | humidity % | barometer mb |
| 20260504150201 | 28 | 10 | 29.0 | 37.0 | 0.00 | 0.00 | 0.00 | 28 | 1010.2 |
| 20260504141130 | 28 | 320 | 24.1 | 29.0 | 0.00 | 0.00 | 0.00 | 31 | 1010.5 |
| 20260504140627 | 28 | 328 | 24.1 | 29.0 | 0.00 | 0.00 | 0.00 | 31 | 1010.6 |
| 20260504140122 | 28 | 314 | 17.7 | 20.9 | 0.00 | 0.00 | 0.00 | 32 | 1010.6 |
| 20260504130550 | 28 | 319 | 16.1 | 24.1 | 0.00 | 0.00 | 0.00 | 35 | 1010.9 |
| 20260504110438 | 28 | 305 | 14.5 | 17.7 | 0.00 | 0.00 | 0.00 | 31 | 1011.9 |
| 20260504100401 | 27 | 334 | 20.9 | 29.0 | 0.00 | 0.00 | 0.00 | 35 | 1012.7 |
| 20260504081754 | 26 | 340 | 25.7 | 33.8 | 0.00 | 0.00 | 0.00 | 41 | 1013.3 |
| 20260504081250 | 26 | 347 | 20.9 | 27.4 | 0.00 | 0.00 | 0.00 | 41 | 1013.3 |
| 20260504080747 | 26 | 345 | 24.1 | 27.4 | 0.00 | 0.00 | 0.00 | 43 | 1013.3 |
| 20260504080243 | 26 | 345 | 24.1 | 27.4 | 0.00 | 0.00 | 0.00 | 43 | 1013.2 |
| 20260504070211 | 25 | 346 | 38.6 | 43.5 | 0.00 | 0.00 | 0.00 | 45 | 1013.5 |
| 20260504060131 | 24 | 344 | 40.2 | 51.5 | 0.00 | 0.00 | 0.00 | 50 | 1013.1 |
| 20260504050600 | 23 | 356 | 33.8 | 46.7 | 0.00 | 0.00 | 0.00 | 56 | 1012.2 |
| 20260504045553 | 23 | 356 | 41.8 | 54.7 | 0.00 | 0.00 | 0.00 | 57 | 1012.4 |
| 20260504045043 | 23 | 348 | 37.0 | 51.5 | 0.00 | 0.00 | 0.00 | 57 | 1012.2 |
| 20260504044541 | 22 | 333 | 35.4 | 48.3 | 0.00 | 0.00 | 0.00 | 58 | 1012.4 |
| 20260504044038 | 22 | 346 | 41.8 | 48.3 | 0.00 | 0.00 | 0.00 | 58 | 1012.3 |
| 20260504043534 | 22 | 334 | 30.6 | 35.4 | 0.00 | 0.00 | 0.00 | 59 | 1012.4 |
| 20260504043032 | 22 | 9 | 37.0 | 46.7 | 0.00 | 0.00 | 0.00 | 60 | 1012.1 |
| 20260504042529 | 22 | 355 | 32.2 | 51.5 | 0.00 | 0.00 | 0.00 | 61 | 1012.2 |
| 20260504042026 | 22 | 353 | 43.5 | 53.1 | 0.00 | 0.00 | 0.00 | 61 | 1012.0 |
| 20260504041522 | 22 | 353 | 38.6 | 41.8 | 0.00 | 0.00 | 0.00 | 62 | 1012.0 |
| 20260504041018 | 22 | 346 | 29.0 | 46.7 | 0.00 | 0.00 | 0.00 | 62 | 1012.0 |
| 20260504040516 | 22 | 342 | 38.6 | 48.3 | 0.00 | 0.00 | 0.00 | 62 | 1012.0 |
| 20260504040012 | 22 | 347 | 38.6 | 53.1 | 0.00 | 0.00 | 0.00 | 63 | 1012.0 |
| 20260504035509 | 22 | 317 | 41.8 | 56.3 | 0.00 | 0.00 | 0.00 | 63 | 1011.8 |
| 20260504035005 | 22 | 343 | 27.4 | 37.0 | 0.00 | 0.00 | 0.00 | 63 | 1011.8 |
| 20260504034503 | 21 | 359 | 33.8 | 38.6 | 0.00 | 0.00 | 0.00 | 64 | 1011.7 |
| 20260504034000 | 21 | 338 | 32.2 | 43.5 | 0.00 | 0.00 | 0.00 | 64 | 1011.9 |
| 20260504033457 | 21 | 359 | 30.6 | 46.7 | 0.00 | 0.00 | 0.00 | 64 | 1011.7 |
| 20260504032955 | 22 | 338 | 37.0 | 46.7 | 0.00 | 0.00 | 0.00 | 63 | 1011.7 |
| 20260504032451 | 21 | 356 | 45.1 | 49.9 | 0.00 | 0.00 | 0.00 | 62 | 1011.5 |
| 20260504031948 | 22 | 333 | 33.8 | 48.3 | 0.00 | 0.00 | 0.00 | 64 | 1011.5 |
| 20260504031445 | 21 | 347 | 27.4 | 37.0 | 0.00 | 0.00 | 0.00 | 65 | 1011.2 |
| 20260504030942 | 21 | 354 | 37.0 | 40.2 | 0.00 | 0.00 | 0.00 | 66 | 1011.2 |
| 20260504030439 | 21 | 328 | 33.8 | 40.2 | 0.00 | 0.00 | 0.00 | 65 | 1011.5 |
| 20260504025934 | 21 | 344 | 32.2 | 43.5 | 0.00 | 0.00 | 0.00 | 65 | 1011.4 |
| 20260504025431 | 21 | 351 | 35.4 | 43.5 | 0.00 | 0.00 | 0.00 | 65 | 1011.4 |
| 20260504024929 | 21 | 346 | 30.6 | 40.2 | 0.00 | 0.00 | 0.00 | 65 | 1011.3 |
| 20260504024426 | 22 | 359 | 33.8 | 43.5 | 0.00 | 0.00 | 0.00 | 65 | 1011.3 |
| 20260504023923 | 22 | 352 | 40.2 | 49.9 | 0.00 | 0.00 | 0.00 | 64 | 1011.2 |
| 20260504023419 | 22 | 348 | 35.4 | 43.5 | 0.00 | 0.00 | 0.00 | 64 | 1011.5 |
| 20260504022915 | 22 | 351 | 40.2 | 48.3 | 0.00 | 0.00 | 0.00 | 64 | 1011.0 |
| 20260504022412 | 22 | 348 | 32.2 | 41.8 | 0.00 | 0.00 | 0.00 | 65 | 1011.2 |
| 20260504021908 | 22 | 324 | 41.8 | 43.5 | 0.00 | 0.00 | 0.00 | 64 | 1011.1 |
| 20260504021406 | 22 | 336 | 37.0 | 43.5 | 0.00 | 0.00 | 0.00 | 64 | 1011.0 |
| 20260504020903 | 22 | 345 | 38.6 | 46.7 | 0.00 | 0.00 | 0.00 | 63 | 1010.7 |
| 20260504020359 | 22 | 344 | 38.6 | 49.9 | 0.00 | 0.00 | 0.00 | 63 | 1010.7 |
| 20260504015855 | 22 | 0 | 37.0 | 51.5 | 0.00 | 0.00 | 0.00 | 63 | 1010.8 |
| 20260504015352 | 22 | 0 | 38.6 | 41.8 | 0.00 | 0.00 | 0.00 | 63 | 1010.9 |
| 20260504014848 | 22 | 358 | 43.5 | 51.5 | 0.00 | 0.00 | 0.00 | 62 | 1010.9 |
| 20260504014344 | 22 | 336 | 45.1 | 49.9 | 0.00 | 0.00 | 0.00 | 63 | 1010.8 |
| 20260504013842 | 22 | 356 | 25.7 | 43.5 | 0.00 | 0.00 | 0.00 | 64 | 1011.0 |
| 20260504013339 | 22 | 347 | 41.8 | 43.5 | 0.00 | 0.00 | 0.00 | 63 | 1010.9 |
| 20260504012836 | 22 | 342 | 40.2 | 41.8 | 0.00 | 0.00 | 0.00 | 63 | 1010.6 |
| 20260504012334 | 22 | 338 | 35.4 | 51.5 | 0.00 | 0.00 | 0.00 | 63 | 1010.7 |
| 20260504011831 | 22 | 340 | 32.2 | 38.6 | 0.00 | 0.00 | 0.00 | 62 | 1010.8 |
| 20260504011327 | 22 | 350 | 37.0 | 48.3 | 0.00 | 0.00 | 0.00 | 63 | 1010.5 |
| 20260504010823 | 22 | 351 | 32.2 | 40.2 | 0.00 | 0.00 | 0.00 | 64 | 1010.8 |
| 20260504010319 | 22 | 19 | 41.8 | 51.5 | 0.00 | 0.00 | 0.00 | 64 | 1010.5 |
| 20260504005816 | 22 | 345 | 41.8 | 48.3 | 0.00 | 0.00 | 0.00 | 64 | 1010.4 |
| 20260504005313 | 22 | 12 | 38.6 | 48.3 | 0.00 | 0.00 | 0.00 | 64 | 1010.7 |
| 20260504004810 | 22 | 353 | 35.4 | 49.9 | 0.00 | 0.00 | 0.00 | 64 | 1010.8 |
| 20260504004308 | 22 | 337 | 40.2 | 46.7 | 0.00 | 0.00 | 0.00 | 63 | 1010.5 |
| 20260504003804 | 22 | 349 | 35.4 | 46.7 | 0.00 | 0.00 | 0.00 | 63 | 1010.8 |
| 20260504003301 | 22 | 349 | 43.5 | 51.5 | 0.00 | 0.00 | 0.00 | 63 | 1010.8 |
| 20260504002757 | 22 | 344 | 45.1 | 49.9 | 0.00 | 0.00 | 0.00 | 62 | 1010.6 |
| 20260504002254 | 22 | 322 | 37.0 | 48.3 | 0.00 | 0.00 | 0.00 | 62 | 1010.6 |
| 20260504001752 | 23 | 350 | 38.6 | 53.1 | 0.00 | 0.00 | 0.00 | 63 | 1010.7 |
| 20260504001249 | 23 | 355 | 37.0 | 48.3 | 0.00 | 0.00 | 0.00 | 63 | 1010.8 |
| 20260504000746 | 23 | 353 | 43.5 | 49.9 | 0.00 | 0.00 | 0.00 | 62 | 1010.5 |
| 20260504000243 | 23 | 342 | 40.2 | 49.9 | 0.00 | 0.00 | 0.00 | 62 | 1010.6 |
| 20260503235741 | 23 | 341 | 38.6 | 43.5 | 0.00 | 0.00 | 0.00 | 62 | 1010.7 |
| 20260503235238 | 23 | 356 | 37.0 | 48.3 | 0.00 | 0.00 | 0.00 | 61 | 1010.7 |
| 20260503234735 | 23 | 7 | 41.8 | 53.1 | 0.00 | 0.00 | 0.00 | 61 | 1010.4 |
| 20260503234233 | 23 | 342 | 41.8 | 48.3 | 0.00 | 0.00 | 0.00 | 61 | 1010.5 |
| 20260503233730 | 23 | 324 | 35.4 | 51.5 | 0.00 | 0.00 | 0.00 | 61 | 1010.6 |
| 20260503233225 | 23 | 348 | 45.1 | 51.5 | 0.00 | 0.00 | 0.00 | 61 | 1010.6 |
| 20260503232723 | 23 | 349 | 35.4 | 48.3 | 0.00 | 0.00 | 0.00 | 60 | 1010.7 |
| 20260503232220 | 23 | 354 | 45.1 | 53.1 | 0.00 | 0.00 | 0.00 | 59 | 1010.7 |
| 20260503231719 | 23 | 351 | 38.6 | 49.9 | 0.00 | 0.00 | 0.00 | 60 | 1010.8 |
| 20260503231215 | 23 | 351 | 35.4 | 49.9 | 0.00 | 0.00 | 0.00 | 59 | 1010.8 |
| 20260503230711 | 23 | 355 | 37.0 | 53.1 | 0.00 | 0.00 | 0.00 | 60 | 1010.7 |
| 20260503230208 | 23 | 358 | 40.2 | 53.1 | 0.00 | 0.00 | 0.00 | 60 | 1010.5 |
| 20260503225705 | 23 | 349 | 46.7 | 53.1 | 0.00 | 0.00 | 0.00 | 60 | 1010.6 |
| 20260503225159 | 23 | 356 | 46.7 | 61.2 | 0.00 | 0.00 | 0.00 | 61 | 1010.6 |
| 20260503224657 | 23 | 350 | 41.8 | 53.1 | 0.00 | 0.00 | 0.00 | 61 | 1010.5 |
| 20260503224155 | 23 | 345 | 40.2 | 46.7 | 0.00 | 0.00 | 0.00 | 61 | 1010.4 |
| 20260503223652 | 23 | 355 | 53.1 | 62.8 | 0.00 | 0.00 | 0.00 | 62 | 1010.4 |
| 20260503223149 | 23 | 352 | 43.5 | 49.9 | 0.00 | 0.00 | 0.00 | 61 | 1010.5 |
| 20260503222646 | 23 | 353 | 48.3 | 53.1 | 0.00 | 0.00 | 0.00 | 61 | 1010.3 |
| 20260503222143 | 24 | 350 | 49.9 | 54.7 | 0.00 | 0.00 | 0.00 | 60 | 1010.3 |
| 20260503221642 | 24 | 356 | 37.0 | 51.5 | 0.00 | 0.00 | 0.00 | 60 | 1010.4 |
| 20260503221139 | 25 | 345 | 46.7 | 48.3 | 0.00 | 0.00 | 0.00 | 57 | 1010.6 |
| 20260503220636 | 25 | 345 | 46.7 | 48.3 | 0.00 | 0.00 | 0.00 | 57 | 1010.6 |
| 20260503220133 | 25 | 345 | 46.7 | 48.3 | 0.00 | 0.00 | 0.00 | 57 | 1010.4 |
| 20260503215630 | 25 | 345 | 46.7 | 48.3 | 0.00 | 0.00 | 0.00 | 57 | 1010.5 |
| 20260503215126 | 25 | 355 | 45.1 | 51.5 | 0.00 | 0.00 | 0.00 | 56 | 1010.4 |
| 20260503214625 | 25 | 355 | 45.1 | 51.5 | 0.00 | 0.00 | 0.00 | 56 | 1010.5 |
| 20260503214120 | 25 | 344 | 33.8 | 40.2 | 0.00 | 0.00 | 0.00 | 56 | 1010.7 |
| 20260503213615 | 25 | 359 | 43.5 | 51.5 | 0.00 | 0.00 | 0.00 | 55 | 1010.8 |
| 20260503213110 | 25 | 351 | 45.1 | 48.3 | 0.00 | 0.00 | 0.00 | 57 | 1010.5 |
| 20260503212608 | 25 | 353 | 48.3 | 53.1 | 0.00 | 0.00 | 0.00 | 56 | 1010.2 |
| 20260503212105 | 25 | 348 | 43.5 | 48.3 | 0.00 | 0.00 | 0.00 | 56 | 1010.3 |
| 20260503211603 | 25 | 357 | 37.0 | 40.2 | 0.00 | 0.00 | 0.00 | 56 | 1010.5 |
| 20260503211058 | 25 | 350 | 45.1 | 51.5 | 0.00 | 0.00 | 0.00 | 56 | 1010.3 |
| 20260503210555 | 26 | 4 | 29.0 | 33.8 | 0.00 | 0.00 | 0.00 | 56 | 1010.2 |
| 20260503210050 | 26 | 347 | 40.2 | 43.5 | 0.00 | 0.00 | 0.00 | 55 | 1010.4 |
| 20260503205547 | 26 | 343 | 37.0 | 40.2 | 0.00 | 0.00 | 0.00 | 52 | 1010.5 |
| 20260503205043 | 26 | 343 | 37.0 | 40.2 | 0.00 | 0.00 | 0.00 | 52 | 1010.1 |
| 20260503204540 | 27 | 336 | 24.1 | 25.7 | 0.00 | 0.00 | 0.00 | 52 | 1010.4 |
| 20260503204037 | 28 | 17 | 19.3 | 24.1 | 0.00 | 0.00 | 0.00 | 45 | 1010.6 |
| 20260503203535 | 28 | 334 | 35.4 | 40.2 | 0.00 | 0.00 | 0.00 | 44 | 1010.4 |
| 20260503203032 | 29 | 207 | 9.7 | 11.3 | 0.00 | 0.00 | 0.00 | 42 | 1010.4 |
| 20260503202530 | 29 | 217 | 11.3 | 14.5 | 0.00 | 0.00 | 0.00 | 42 | 1010.0 |
| 20260503202028 | 29 | 231 | 16.1 | 20.9 | 0.00 | 0.00 | 0.00 | 42 | 1009.7 |
| 20260503201526 | 28 | 219 | 9.7 | 14.5 | 0.00 | 0.00 | 0.00 | 46 | 1009.9 |
| 20260503201022 | 28 | 221 | 11.3 | 14.5 | 0.00 | 0.00 | 0.00 | 47 | 1009.7 |
| 20260503200518 | 28 | 222 | 11.3 | 12.9 | 0.00 | 0.00 | 0.00 | 48 | 1009.8 |
| 20260503200015 | 28 | 222 | 9.7 | 11.3 | 0.00 | 0.00 | 0.00 | 50 | 1009.9 |
| 20260503195512 | 28 | 230 | 9.7 | 11.3 | 0.00 | 0.00 | 0.00 | 50 | 1010.0 |
| 20260503195003 | 28 | 228 | 9.7 | 12.9 | 0.00 | 0.00 | 0.00 | 49 | 1010.0 |
| 20260503194501 | 28 | 226 | 9.7 | 12.9 | 0.00 | 0.00 | 0.00 | 51 | 1009.8 |
| 20260503194000 | 28 | 226 | 11.3 | 12.9 | 0.00 | 0.00 | 0.00 | 50 | 1009.6 |
| 20260503193457 | 28 | 227 | 8.0 | 9.7 | 0.00 | 0.00 | 0.00 | 50 | 1009.8 |
| 20260503192952 | 28 | 216 | 9.7 | 12.9 | 0.00 | 0.00 | 0.00 | 46 | 1009.6 |
| 20260503192449 | 28 | 220 | 11.3 | 14.5 | 0.00 | 0.00 | 0.00 | 46 | 1009.5 |
| 20260503191944 | 28 | 211 | 8.0 | 12.9 | 0.00 | 0.00 | 0.00 | 49 | 1009.4 |
| 20260503191443 | 28 | 204 | 6.4 | 11.3 | 0.00 | 0.00 | 0.00 | 52 | 1009.4 |
| 20260503190938 | 28 | 192 | 6.4 | 11.3 | 0.00 | 0.00 | 0.00 | 51 | 1009.7 |
| 20260503190436 | 29 | 190 | 6.4 | 12.9 | 0.00 | 0.00 | 0.00 | 49 | 1009.3 |
| 20260503185933 | 29 | 228 | 8.0 | 11.3 | 0.00 | 0.00 | 0.00 | 45 | 1009.2 |
| 20260503185429 | 29 | 215 | 12.9 | 14.5 | 0.00 | 0.00 | 0.00 | 46 | 1009.1 |
| 20260503184928 | 29 | 232 | 11.3 | 14.5 | 0.00 | 0.00 | 0.00 | 43 | 1009.2 |
| 20260503184425 | 30 | 231 | 11.3 | 12.9 | 0.00 | 0.00 | 0.00 | 43 | 1009.0 |
| 20260503183922 | 29 | 230 | 14.5 | 17.7 | 0.00 | 0.00 | 0.00 | 42 | 1009.1 |
| 20260503183418 | 29 | 254 | 8.0 | 11.3 | 0.00 | 0.00 | 0.00 | 47 | 1008.9 |
| 20260503182915 | 28 | 234 | 9.7 | 11.3 | 0.00 | 0.00 | 0.00 | 48 | 1009.0 |
| 20260503182414 | 29 | 237 | 8.0 | 14.5 | 0.00 | 0.00 | 0.00 | 48 | 1008.8 |
| 20260503181911 | 28 | 236 | 9.7 | 12.9 | 0.00 | 0.00 | 0.00 | 47 | 1009.0 |
| 20260503181408 | 28 | 242 | 12.9 | 14.5 | 0.00 | 0.00 | 0.00 | 49 | 1009.0 |
| 20260503180904 | 28 | 240 | 8.0 | 12.9 | 0.00 | 0.00 | 0.00 | 49 | 1008.9 |
| 20260503180403 | 29 | 233 | 11.3 | 14.5 | 0.00 | 0.00 | 0.00 | 48 | 1008.7 |
| 20260503175859 | 28 | 216 | 9.7 | 14.5 | 0.00 | 0.00 | 0.00 | 46 | 1008.7 |
| 20260503175357 | 28 | 200 | 6.4 | 6.4 | 0.00 | 0.00 | 0.00 | 52 | 1008.6 |
| 20260503174852 | 28 | 229 | 8.0 | 9.7 | 0.00 | 0.00 | 0.00 | 50 | 1008.4 |
| 20260503174351 | 29 | 217 | 8.0 | 11.3 | 0.00 | 0.00 | 0.00 | 50 | 1008.4 |
| 20260503173850 | 29 | 226 | 11.3 | 12.9 | 0.00 | 0.00 | 0.00 | 49 | 1008.5 |
| 20260503173347 | 29 | 221 | 12.9 | 14.5 | 0.00 | 0.00 | 0.00 | 47 | 1008.3 |
| 20260503172844 | 29 | 237 | 9.7 | 14.5 | 0.00 | 0.00 | 0.00 | 47 | 1008.3 |
| 20260503172342 | 28 | 233 | 12.9 | 16.1 | 0.00 | 0.00 | 0.00 | 48 | 1008.5 |
| 20260503171837 | 29 | 203 | 6.4 | 6.4 | 0.00 | 0.00 | 0.00 | 53 | 1008.3 |
| 20260503171334 | 30 | 227 | 8.0 | 14.5 | 0.00 | 0.00 | 0.00 | 46 | 1008.3 |
| 20260503170832 | 30 | 216 | 6.4 | 9.7 | 0.00 | 0.00 | 0.00 | 47 | 1008.3 |
| 20260503170328 | 30 | 199 | 6.4 | 9.7 | 0.00 | 0.00 | 0.00 | 46 | 1008.3 |
| 20260503150720 | 31 | 213 | 8.0 | 9.7 | 0.00 | 0.00 | 0.00 | 42 | 1007.1 |